Location: Brotuna
(46.2000°N, 22.6000°E)
Time: 12:16:56
(UTC+00:00)

STARLINK-1215 - Pass Details

Date: 09 April 2020
Orbit: 378 x 381 km, 53.0° (Epoch: 26 May)

Event Time Altitude Azimuth Distance (km) Brightness Sun altitude
Rises 18:16:30 0° 301° (WNW) 2,262 8.9 -11.8°
Reaches altitude 10° 18:18:34 10° 303° (WNW) 1,406 7.2 -12.1°
Maximum altitude 18:21:42 72° 29° (NNE) 405 2.9 -12.6°
Enters shadow 18:23:21 25° 110° (ESE) 817 3.9 -12.9°
